Regional Weather Roundup
Issued by NWS

Home | Current Version | Previous Version | Graphics & Text | Print | Product List | Glossary On
Versions: 1 2 3 4 5 6 7 8 9 10 11 12 13 14 15 16 17 18 19 20 21 22 23 24 25 26 27 28 29 30 31 32 33 34 35 36 37 38 39 40 41 42 43 44 45 46 47 48 49 50
000
ASUS45 KSLC 251810
RWRUT

UTAH REGIONAL WEATHER ROUNDUP
NATIONAL WEATHER SERVICE SALT LAKE CITY UT
1200 PM MDT SUN SEP 25 2016

UTZ001>011-023>025-251900-

NORTHERN UTAH

CITY           SKY/WX    TMP DP  RH WIND       PRES   REMARKS
BRIGHAM CITY     N/A     58  42  55 CALM      30.50S
HILL AFB       SUNNY     58  40  51 N6        30.49F
LOGAN          SUNNY     56  43  61 NE5       30.51S
OGDEN          SUNNY     59  45  59 NW6       30.49F
PROVO AIRPORT  SUNNY     55  43  63 W6        30.50F
SALT LAKE CITY SUNNY     60  45  57 NW9       30.47F
VERNAL         SUNNY     57  39  51 VRB5      30.50F
WENDOVER       SUNNY     61  39  44 E5        30.50S
HEBER CITY     SUNNY     52  36  54 CALM      30.50F
WEST JORDAN    SUNNY     59  42  53 N5        30.49F

$$

UTZ012>022-026-027-251900-

SOUTHERN/CENTRAL UTAH

CITY           SKY/WX    TMP DP  RH WIND       PRES   REMARKS
BLANDING       SUNNY     66  27  23 NE13G18   30.48S
BRYCE CANYON   SUNNY     54  32  43 NE13      30.52S
CEDAR CITY     SUNNY     61  33  35 N12       30.44F
DELTA          SUNNY     61  37  41 NE6       30.48S
MILFORD        SUNNY     63  37  38 N16G28    30.46S
MOAB/CYNLANDS  SUNNY     67  31  26 NE17G24   30.43F
PRICE          SUNNY     58  33  39 SW6       30.50F
ST GEORGE      CLEAR     75  34  22 NE13G18   30.34S

$$

REGIONAL REPORTS     COLORADO/ARIZONA

CITY           SKY/WX    TMP DP  RH WIND       PRES   REMARKS
CRAIG, CO      SUNNY     52  38  58 CALM      30.52F
GRAND JUNCTION SUNNY     60  39  45 VRB6      30.46F
RIFLE          SUNNY     57  41  55 CALM      30.48F
MONTROSE       SUNNY     57  38  48 CALM      30.49F
CORTEZ         SUNNY     64  37  36 S5        30.40F
PAGE, AZ       SUNNY     70  31  23 NE10      30.38F
GRAND CANYON   SUNNY     59  31  34 NE22G32   30.43F
KINGMAN        SUNNY     76  31  19 N21       30.25F
FLAGSTAFF      SUNNY     56  33  42 NE20G29   30.38S

$$

REGIONAL REPORTS    NEVADA/IDAHO/WYOMING

CITY           SKY/WX    TMP DP  RH WIND       PRES   REMARKS
LAS VEGAS, NV  SUNNY     80  29  15 NE18G24   30.26F
ELY            SUNNY     58  32  37 N13       30.52S
ELKO           SUNNY     61  29  29 VRB3      30.51F
POCATELLO, ID  SUNNY     58  34  40 W10       30.52S
BURLEY         SUNNY     57  36  45 W7        30.49F
EVANSTON, WY   SUNNY     51  32  48 VRB5      30.55F
ROCK SPRINGS   SUNNY     51  36  56 W12       30.52F

$$



USA.gov is the U.S. government's official web portal to all federal, state and local government web resources and services.